| time (UTC) | temp C | wind direction | speed KPH | gust KPH | rain 1hr cm | rain 24hr cm | rain mn cm | humidity % | barometer mb |
| 20260507063036 | 11 | 228 | 0.0 | 3.2 | 0.00 | 0.00 | 0.00 | 81 | 1021.8 |
| 20260507061536 | 11 | 40 | 0.0 | 1.6 | 0.00 | 0.00 | 0.00 | 84 | 1021.6 |
| 20260507060035 | 11 | 40 | 0.0 | 3.2 | 0.00 | 0.00 | 0.00 | 82 | 1021.7 |
| 20260507054538 | 12 | 82 | 0.0 | 0.0 | 0.00 | 0.00 | 0.00 | 83 | 1021.7 |
| 20260507053034 | 12 | 82 | 0.0 | 0.0 | 0.00 | 0.00 | 0.00 | 83 | 1021.6 |
| 20260507051534 | 12 | 81 | 0.0 | 1.6 | 0.00 | 0.00 | 0.00 | 82 | 1021.8 |
| 20260507050034 | 12 | 37 | 0.0 | 0.0 | 0.00 | 0.00 | 0.00 | 82 | 1021.8 |
| 20260507044534 | 12 | 37 | 0.0 | 0.0 | 0.00 | 0.00 | 0.00 | 82 | 1021.9 |
| 20260507043031 | 12 | 37 | 0.0 | 0.0 | 0.00 | 0.00 | 0.00 | 81 | 1021.8 |
| 20260507041531 | 12 | 37 | 0.0 | 0.0 | 0.00 | 0.00 | 0.00 | 80 | 1021.8 |
| 20260507040029 | 12 | 37 | 0.0 | 1.6 | 0.00 | 0.00 | 0.00 | 79 | 1021.6 |
| 20260507034528 | 12 | 37 | 0.0 | 3.2 | 0.00 | 0.00 | 0.00 | 78 | 1021.6 |
| 20260507033030 | 13 | 41 | 0.0 | 1.6 | 0.00 | 0.00 | 0.00 | 80 | 1021.3 |
| 20260507031527 | 13 | 42 | 0.0 | 1.6 | 0.00 | 0.00 | 0.00 | 79 | 1021.1 |
| 20260507030026 | 13 | 19 | 0.0 | 1.6 | 0.00 | 0.00 | 0.00 | 78 | 1021.1 |
| 20260507024526 | 13 | 19 | 0.0 | 3.2 | 0.00 | 0.00 | 0.00 | 77 | 1021.0 |
| 20260507023025 | 13 | 47 | 0.0 | 3.2 | 0.00 | 0.00 | 0.00 | 76 | 1020.9 |
| 20260507021525 | 14 | 57 | 0.0 | 1.6 | 0.00 | 0.00 | 0.00 | 75 | 1020.8 |
| 20260507020029 | 14 | 31 | 0.0 | 4.8 | 0.00 | 0.00 | 0.00 | 73 | 1020.9 |
| 20260507014529 | 15 | 12 | 0.0 | 4.8 | 0.00 | 0.00 | 0.00 | 72 | 1020.7 |
| 20260507013040 | 15 | 339 | 0.0 | 1.6 | 0.00 | 0.00 | 0.00 | 73 | 1020.6 |
| 20260507011523 | 15 | 35 | 0.0 | 3.2 | 0.00 | 0.00 | 0.00 | 72 | 1020.6 |
| 20260507010031 | 15 | 17 | 0.0 | 3.2 | 0.00 | 0.00 | 0.00 | 70 | 1020.8 |
| 20260507004521 | 15 | 22 | 0.0 | 6.4 | 0.00 | 0.00 | 0.00 | 68 | 1020.9 |
| 20260507003020 | 16 | 340 | 1.6 | 9.7 | 0.00 | 0.00 | 0.00 | 66 | 1021.0 |
| 20260507001521 | 16 | 312 | 0.0 | 4.8 | 0.00 | 0.00 | 0.00 | 69 | 1020.9 |
| 20260507000020 | 16 | 5 | 0.0 | 8.0 | 0.00 | 0.00 | 0.00 | 67 | 1020.9 |
| 20260506234519 | 16 | 93 | 0.0 | 3.2 | 0.00 | 0.00 | 0.00 | 67 | 1020.8 |
| 20260506233019 | 17 | 93 | 1.6 | 3.2 | 0.00 | 0.00 | 0.00 | 67 | 1020.9 |
| 20260506231518 | 17 | 29 | 0.0 | 4.8 | 0.00 | 0.00 | 0.00 | 65 | 1020.9 |
| 20260506230016 | 17 | 36 | 1.6 | 6.4 | 0.00 | 0.00 | 0.00 | 66 | 1021.0 |
| 20260506224514 | 16 | 344 | 1.6 | 8.0 | 0.00 | 0.00 | 0.00 | 68 | 1021.1 |
| 20260506223014 | 16 | 222 | 0.0 | 3.2 | 0.00 | 0.00 | 0.00 | 71 | 1021.2 |
| 20260506221514 | 16 | 44 | 1.6 | 4.8 | 0.00 | 0.00 | 0.00 | 67 | 1021.4 |
| 20260506220012 | 16 | 114 | 0.0 | 6.4 | 0.00 | 0.00 | 0.00 | 67 | 1021.4 |
| 20260506214517 | 16 | 53 | 1.6 | 9.7 | 0.00 | 0.00 | 0.00 | 66 | 1021.4 |
| 20260506213008 | 16 | 174 | 1.6 | 6.4 | 0.00 | 0.00 | 0.00 | 67 | 1021.4 |
| 20260506211504 | 15 | 345 | 0.0 | 9.7 | 0.00 | 0.00 | 0.00 | 70 | 1021.4 |
| 20260506210100 | 15 | 338 | 3.2 | 9.7 | 0.00 | 0.00 | 0.00 | 70 | 1021.3 |
| 20260506204557 | 15 | 20 | 1.6 | 8.0 | 0.00 | 0.00 | 0.00 | 72 | 1021.2 |
| 20260506203058 | 15 | 42 | 1.6 | 6.4 | 0.00 | 0.00 | 0.00 | 72 | 1021.2 |
| 20260506201554 | 15 | 57 | 1.6 | 9.7 | 0.00 | 0.00 | 0.00 | 72 | 1021.2 |
| 20260506200052 | 14 | 5 | 1.6 | 8.0 | 0.00 | 0.00 | 0.00 | 73 | 1021.2 |
| 20260506194550 | 14 | 169 | 0.0 | 4.8 | 0.00 | 0.00 | 0.00 | 75 | 1021.3 |
| 20260506193051 | 14 | 16 | 0.0 | 8.0 | 0.00 | 0.00 | 0.00 | 76 | 1021.2 |
| 20260506191547 | 14 | 336 | 0.0 | 6.4 | 0.00 | 0.00 | 0.00 | 78 | 1021.0 |
| 20260506190044 | 13 | 28 | 1.6 | 8.0 | 0.00 | 0.00 | 0.00 | 80 | 1021.0 |
| 20260506184550 | 13 | 51 | 0.0 | 4.8 | 0.00 | 0.00 | 0.00 | 81 | 1021.2 |
| 20260506183052 | 13 | 5 | 0.0 | 4.8 | 0.00 | 0.00 | 0.00 | 81 | 1021.1 |
| 20260506181608 | 13 | 355 | 0.0 | 4.8 | 0.00 | 0.00 | 0.00 | 82 | 1021.1 |
| 20260506180038 | 12 | 18 | 0.0 | 3.2 | 0.00 | 0.00 | 0.00 | 82 | 1021.1 |
| 20260506174540 | 12 | 11 | 0.0 | 4.8 | 0.00 | 0.00 | 0.00 | 81 | 1021.1 |
| 20260506173053 | 12 | 355 | 0.0 | 3.2 | 0.00 | 0.00 | 0.00 | 83 | 1020.9 |
| 20260506171534 | 12 | 348 | 1.6 | 4.8 | 0.00 | 0.00 | 0.00 | 82 | 1020.8 |
| 20260506170035 | 12 | 21 | 0.0 | 4.8 | 0.00 | 0.00 | 0.00 | 84 | 1020.7 |
| 20260506164537 | 12 | 30 | 0.0 | 4.8 | 0.00 | 0.00 | 0.00 | 86 | 1020.5 |
| 20260506163035 | 12 | 10 | 0.0 | 3.2 | 0.00 | 0.00 | 0.00 | 86 | 1020.7 |
| 20260506161530 | 12 | 5 | 0.0 | 3.2 | 0.00 | 0.00 | 0.00 | 86 | 1020.7 |
| 20260506160030 | 11 | 15 | 0.0 | 3.2 | 0.00 | 0.00 | 0.00 | 87 | 1020.7 |
| 20260506154527 | 11 | 355 | 0.0 | 3.2 | 0.00 | 0.00 | 0.00 | 87 | 1020.5 |
| 20260506153026 | 11 | 26 | 0.0 | 3.2 | 0.00 | 0.00 | 0.00 | 87 | 1020.5 |
| 20260506151526 | 11 | 351 | 0.0 | 4.8 | 0.00 | 0.00 | 0.00 | 87 | 1020.4 |
| 20260506150027 | 11 | 98 | 0.0 | 3.2 | 0.00 | 0.00 | 0.00 | 88 | 1019.7 |
| 20260506144526 | 11 | 82 | 0.0 | 3.2 | 0.00 | 0.00 | 0.00 | 88 | 1020.0 |
| 20260506143028 | 11 | 57 | 0.0 | 4.8 | 0.00 | 0.00 | 0.00 | 88 | 1020.4 |
| 20260506141523 | 11 | 34 | 0.0 | 3.2 | 0.00 | 0.00 | 0.00 | 89 | 1020.5 |
| 20260506140024 | 11 | 36 | 0.0 | 3.2 | 0.00 | 0.00 | 0.00 | 89 | 1020.2 |
| 20260506134520 | 11 | 45 | 0.0 | 1.6 | 0.00 | 0.00 | 0.00 | 89 | 1020.4 |
| 20260506133018 | 11 | 62 | 0.0 | 1.6 | 0.00 | 0.00 | 0.00 | 90 | 1019.8 |
| 20260506131524 | 11 | 53 | 0.0 | 1.6 | 0.00 | 0.00 | 0.00 | 90 | 1019.9 |
| 20260506130114 | 11 | 53 | 0.0 | 1.6 | 0.00 | 0.00 | 0.00 | 91 | 1019.6 |
| 20260506124512 | 11 | 324 | 0.0 | 1.6 | 0.00 | 0.00 | 0.00 | 91 | 1019.6 |
| 20260506123011 | 11 | 307 | 0.0 | 0.0 | 0.00 | 0.00 | 0.00 | 92 | 1019.3 |
| 20260506121510 | 11 | 290 | 0.0 | 1.6 | 0.00 | 0.00 | 0.00 | 93 | 1019.2 |
| 20260506120016 | 11 | 290 | 0.0 | 0.0 | 0.00 | 0.00 | 0.00 | 93 | 1019.2 |
| 20260506114517 | 11 | 290 | 0.0 | 1.6 | 0.00 | 0.03 | 0.00 | 93 | 1019.2 |
| 20260506113018 | 11 | 290 | 0.0 | 0.0 | 0.00 | 0.03 | 0.00 | 93 | 1019.1 |
| 20260506111505 | 11 | 290 | 0.0 | 0.0 | 0.00 | 0.03 | 0.00 | 93 | 1019.1 |
| 20260506110003 | 11 | 290 | 0.0 | 0.0 | 0.00 | 0.03 | 0.00 | 92 | 1019.0 |
| 20260506104501 | 11 | 290 | 0.0 | 0.0 | 0.00 | 0.03 | 0.00 | 92 | 1018.8 |
| 20260506103100 | 11 | 290 | 0.0 | 0.0 | 0.00 | 0.03 | 0.00 | 91 | 1018.7 |
| 20260506101558 | 12 | 290 | 0.0 | 1.6 | 0.00 | 0.03 | 0.00 | 90 | 1018.6 |
| 20260506100056 | 12 | 290 | 0.0 | 0.0 | 0.00 | 0.03 | 0.00 | 88 | 1018.6 |
| 20260506094554 | 12 | 290 | 0.0 | 1.6 | 0.00 | 0.03 | 0.00 | 87 | 1018.5 |
| 20260506093052 | 12 | 290 | 0.0 | 0.0 | 0.00 | 0.03 | 0.00 | 86 | 1018.3 |
| 20260506091555 | 12 | 290 | 0.0 | 0.0 | 0.00 | 0.03 | 0.00 | 86 | 1018.2 |
| 20260506090057 | 12 | 290 | 0.0 | 0.0 | 0.00 | 0.03 | 0.00 | 85 | 1018.3 |
| 20260506084551 | 12 | 290 | 0.0 | 0.0 | 0.00 | 0.03 | 0.00 | 85 | 1018.2 |
| 20260506083047 | 12 | 290 | 0.0 | 0.0 | 0.00 | 0.03 | 0.00 | 85 | 1018.0 |
| 20260506081545 | 12 | 290 | 0.0 | 0.0 | 0.00 | 0.03 | 0.00 | 84 | 1017.9 |
| 20260506073040 | 13 | 290 | 0.0 | 1.6 | 0.00 | 0.03 | 0.00 | 84 | 1017.6 |
| 20260506071538 | 13 | 257 | 0.0 | 1.6 | 0.00 | 0.03 | 0.00 | 84 | 1017.4 |